Location: Hylvaty SDH
(49.9612°N, 16.4057°E)
Time: 22:27:32
(UTC+02:00)

Tiros 1 - Visible Passes

Search period start: 25 September 2020 00:00
Search period end: 05 October 2020 00:00
Orbit: 630 x 664 km, 48.4° (Epoch: 24 September)

Date Brightness Start Highest point End Pass type
(mag) Time Alt. Az. Time Alt. Az. Time Alt. Az.
25 Sep 7.3 20:48:20 10° W 20:53:04 60° SSW 20:54:03 49° SSE visible
25 Sep 9.7 22:30:49 10° W 22:31:42 14° W 22:31:42 14° W visible
26 Sep 7.3 19:32:11 10° W 19:36:58 74° S 19:41:09 14° ESE visible
26 Sep 7.9 21:14:23 10° W 21:18:48 43° SSW 21:18:48 43° SSW visible
27 Sep 7.4 19:58:12 10° W 20:02:57 62° SSW 20:05:56 22° ESE visible
27 Sep 8.9 21:40:38 10° W 21:43:36 25° SW 21:43:36 25° SW visible
28 Sep 7.9 20:24:16 10° W 20:28:49 45° SSW 20:30:46 29° SSE visible
28 Sep 9.8 22:07:28 10° WSW 22:08:25 13° WSW 22:08:25 13° WSW visible
29 Sep 7.5 19:08:05 10° W 19:12:49 64° SSW 19:17:34 10° ESE visible
29 Sep 8.5 20:50:28 10° W 20:54:34 28° SSW 20:55:39 26° S visible
30 Sep 7.9 19:34:08 10° W 19:38:42 46° SSW 19:42:56 12° SE visible
30 Sep 9.3 21:17:11 10° W 21:20:08 16° SW 21:20:36 16° SW visible
01 Oct 8.7 20:00:19 10° W 20:04:28 30° SSW 20:07:57 13° SSE visible
02 Oct 9.4 20:26:56 10° W 20:30:04 17° SW 20:33:05 10° S visible
03 Oct 8.7 19:10:10 10° W 19:14:23 31° SSW 19:18:36 10° SSE visible
04 Oct 9.5 19:36:42 10° W 19:39:59 18° SW 19:43:17 10° S visible
